Time,TemperatureF,DewpointF,PressureIn,WindDirection,WindDirectionDegrees,WindSpeedMPH,WindSpeedGustMPH,Humidity,HourlyPrecipIn,Conditions,Clouds,dailyrainin,SoftwareType,DateUTC
2013-07-14 00:00:00,67.5,60.7,30.02,ENE,73,0.0,3.0,79,0.00,CLR,FEW,0.00,WeatherDisplay:10.37,2013-07-13 22:00:00,
2013-07-14 00:30:00,67.1,60.7,30.01,ENE,73,0.0,1.0,80,0.00,CLR,FEW,0.00,WeatherDisplay:10.37,2013-07-13 22:30:00,
2013-07-14 01:00:00,67.0,61.3,30.02,ENE,73,0.0,2.0,82,0.00,CLR,FEW,0.00,WeatherDisplay:10.37,2013-07-13 23:00:00,
2013-07-14 01:30:00,67.2,62.2,30.01,ENE,73,0.0,1.0,84,0.00,CLR,FEW,0.00,WeatherDisplay:10.37,2013-07-13 23:30:00,
2013-07-14 02:00:00,67.4,62.4,30.01,ENE,73,0.0,0.0,84,0.00,CLR,FEW,0.00,WeatherDisplay:10.37,2013-07-14 00:00:00,
2013-07-14 02:30:00,67.4,62.4,30.01,ENE,73,0.0,1.0,84,0.00,CLR,FEW,0.00,WeatherDisplay:10.37,2013-07-14 00:30:00,
2013-07-14 03:00:00,67.2,62.2,30.00,ENE,73,0.0,3.0,84,0.00,CLR,FEW,0.00,WeatherDisplay:10.37,2013-07-14 01:00:00,
2013-07-14 03:30:00,67.3,62.3,30.00,ENE,73,0.0,1.0,84,0.00,CLR,FEW,0.00,WeatherDisplay:10.37,2013-07-14 01:30:00,
2013-07-14 04:00:00,67.4,62.4,30.00,ENE,73,0.0,1.0,84,0.00,CLR,FEW,0.00,WeatherDisplay:10.37,2013-07-14 02:00:00,
2013-07-14 04:30:00,67.3,62.6,30.00,ENE,72,0.0,1.0,85,0.00,CLR,FEW,0.00,WeatherDisplay:10.37,2013-07-14 02:30:00,
2013-07-14 05:00:00,67.8,63.5,30.00,ENE,72,0.0,4.0,86,0.00,CLR,FEW,0.00,WeatherDisplay:10.37,2013-07-14 03:00:00,
2013-07-14 05:30:00,67.7,63.7,30.01,ENE,72,0.0,0.0,87,0.00,CLR,FEW,0.00,WeatherDisplay:10.37,2013-07-14 03:30:00,
2013-07-14 06:00:00,68.0,64.6,30.00,ENE,72,0.0,1.0,89,0.00,CLR,FEW,0.00,WeatherDisplay:10.37,2013-07-14 04:00:00,
2013-07-14 06:30:00,68.2,64.8,30.00,ENE,72,0.0,2.0,89,0.00,CLR,FEW,0.00,WeatherDisplay:10.37,2013-07-14 04:30:00,
2013-07-14 07:00:00,68.7,65.6,30.00,ENE,72,0.0,0.0,90,0.00,CLR,FEW,0.00,WeatherDisplay:10.37,2013-07-14 05:00:00,
2013-07-14 07:30:00,69.6,66.5,30.01,ENE,72,0.0,0.0,90,0.00,CLR,FEW,0.00,WeatherDisplay:10.37,2013-07-14 05:30:00,
2013-07-14 08:00:00,70.0,67.3,30.00,ENE,72,0.0,2.0,91,0.00,CLR,FEW,0.00,WeatherDisplay:10.37,2013-07-14 06:00:00,
2013-07-14 08:30:00,70.8,67.7,30.00,ENE,72,0.0,3.0,90,0.00,CLR,FEW,0.00,WeatherDisplay:10.37,2013-07-14 06:30:00,
2013-07-14 09:00:00,74.3,68.8,30.00,ENE,72,0.0,1.0,83,0.00,CLR,FEW,0.00,WeatherDisplay:10.37,2013-07-14 07:00:00,
2013-07-14 09:30:00,74.6,68.4,30.00,ENE,72,0.0,2.0,81,0.00,CLR,FEW,0.00,WeatherDisplay:10.37,2013-07-14 07:30:00,
2013-07-14 10:00:00,75.2,69.0,30.00,ENE,66,0.0,4.0,81,0.00,CLR,FEW,0.00,WeatherDisplay:10.37,2013-07-14 08:00:00,
2013-07-14 10:30:00,76.8,69.4,29.99,ENE,69,0.0,4.0,78,0.00,CLR,FEW,0.00,WeatherDisplay:10.37,2013-07-14 08:30:00,
2013-07-14 11:00:00,76.7,68.2,29.99,ENE,69,0.0,3.0,75,0.00,CLR,FEW,0.00,WeatherDisplay:10.37,2013-07-14 09:00:00,
2013-07-14 11:30:00,77.7,68.7,30.00,ESE,105,0.0,7.0,74,0.00,CLR,FEW,0.00,WeatherDisplay:10.37,2013-07-14 09:30:00,
2013-07-14 12:00:00,81.1,68.7,30.00,SSW,203,0.0,7.0,66,0.00,CLR,FEW,0.00,WeatherDisplay:10.37,2013-07-14 10:00:00,
2013-07-14 12:30:00,82.8,68.9,30.00,SW,233,1.0,6.0,63,0.00,CLR,FEW,0.00,WeatherDisplay:10.37,2013-07-14 10:30:00,
2013-07-14 13:00:00,83.8,65.4,29.99,WNW,303,1.0,6.0,54,0.00,CLR,FEW,0.00,WeatherDisplay:10.37,2013-07-14 11:00:00,
2013-07-14 13:30:00,84.5,65.0,29.97,ESE,123,1.0,5.0,52,0.00,CLR,FEW,0.00,WeatherDisplay:10.37,2013-07-14 11:30:00,
2013-07-14 14:00:00,83.5,67.1,29.97,South,191,2.0,9.0,58,0.00,CLR,FEW,0.00,WeatherDisplay:10.37,2013-07-14 12:00:00,
2013-07-14 14:30:00,80.6,62.5,29.99,South,174,0.0,5.0,54,0.00,CLR,FEW,0.00,WeatherDisplay:10.37,2013-07-14 12:30:00,
2013-07-14 15:00:00,75.0,64.6,29.98,ENE,71,1.0,9.0,70,0.00,CLR,FEW,0.00,WeatherDisplay:10.37,2013-07-14 13:00:00,
2013-07-14 15:30:00,80.7,65.5,29.99,SSE,162,5.0,9.0,60,0.00,CLR,FEW,0.00,WeatherDisplay:10.37,2013-07-14 13:30:00,
2013-07-14 16:00:00,82.1,65.9,29.99,South,184,2.0,6.0,58,0.00,CLR,FEW,0.00,WeatherDisplay:10.37,2013-07-14 14:00:00,
2013-07-14 16:30:00,81.7,66.5,29.99,West,271,1.0,9.0,60,0.00,CLR,FEW,0.00,WeatherDisplay:10.37,2013-07-14 14:30:00,
2013-07-14 17:00:00,77.8,65.9,29.99,WNW,303,0.0,9.0,67,0.00,CLR,FEW,0.00,WeatherDisplay:10.37,2013-07-14 15:00:00,
2013-07-14 17:30:00,76.6,66.1,30.00,NNW,331,0.0,4.0,70,0.00,CLR,FEW,0.00,WeatherDisplay:10.37,2013-07-14 15:30:00,
2013-07-14 18:00:00,75.5,67.0,30.00,NNW,332,0.0,2.0,75,0.02,RA,FEW,0.02,WeatherDisplay:10.37,2013-07-14 16:00:00,
2013-07-14 18:30:00,68.6,63.2,30.01,SE,130,1.0,7.0,83,0.15,RA,FEW,0.15,WeatherDisplay:10.37,2013-07-14 16:30:00,
2013-07-14 19:00:00,66.9,63.5,30.01,ESE,115,0.0,8.0,89,0.15,RA,FEW,0.17,WeatherDisplay:10.37,2013-07-14 17:00:00,
2013-07-14 19:30:00,67.0,63.7,30.01,NNW,334,0.0,5.0,89,0.02,CLR,FEW,0.17,WeatherDisplay:10.37,2013-07-14 17:30:00,
2013-07-14 20:00:00,66.4,62.7,30.01,East,101,0.0,5.0,88,0.00,CLR,FEW,0.17,WeatherDisplay:10.37,2013-07-14 18:00:00,
2013-07-14 20:30:00,66.3,63.3,30.00,East,98,0.0,1.0,90,0.00,CLR,FEW,0.17,WeatherDisplay:10.37,2013-07-14 18:30:00,
2013-07-14 21:00:00,65.5,62.5,30.01,East,86,0.0,6.0,90,0.00,CLR,FEW,0.17,WeatherDisplay:10.37,2013-07-14 19:00:00,
2013-07-14 21:30:00,64.7,61.7,30.02,East,86,0.0,1.0,90,0.00,CLR,FEW,0.17,WeatherDisplay:10.37,2013-07-14 19:30:00,
2013-07-14 22:00:00,63.9,61.2,30.01,East,86,0.0,2.0,91,0.00,CLR,FEW,0.17,WeatherDisplay:10.37,2013-07-14 20:00:00,
2013-07-14 22:30:00,63.5,60.8,30.02,East,86,0.0,3.0,91,0.00,CLR,FEW,0.17,WeatherDisplay:10.37,2013-07-14 20:30:00,
2013-07-14 23:00:00,63.6,60.6,30.02,East,86,0.0,5.0,90,0.00,CLR,FEW,0.17,WeatherDisplay:10.37,2013-07-14 21:00:00,
2013-07-14 23:30:00,62.9,59.9,30.02,East,86,0.0,0.0,90,0.00,CLR,FEW,0.17,WeatherDisplay:10.37,2013-07-14 21:30:00,